FW1349 Weather Reports


time (UTC)temp
C
wind
direction
speed
KPH
gust
KPH
rain 1hr
cm
rain 24hr
cm
rain mn
cm
humidity
%
barometer
mb
20260507191517 14 90 4.8 17.7 0.00 0.00 0.00 29
20260507190516 14 113 6.4 12.9 0.00 0.00 0.00 27
20260507185516 14 113 6.4 16.1 0.00 0.00 0.00 27
20260507184516 14 135 3.2 8.0 0.00 0.00 0.00 27
20260507183557 14 90 4.8 17.7 0.00 0.00 0.00 29
20260507182536 13 68 4.8 12.9 0.00 0.00 0.00 28
20260507181516 13 113 3.2 6.4 0.00 0.00 0.00 32
20260507180515 13 90 8.0 12.9 0.00 0.00 0.00 30
20260507175515 13 113 4.8 11.3 0.00 0.00 0.00 29
20260507174516 13 113 6.4 16.1 0.00 0.00 0.00 32
20260507173515 12 113 6.4 16.1 0.00 0.00 0.00 31
20260507172516 12 90 4.8 9.7 0.00 0.00 0.00 30
20260507171515 12 68 4.8 11.3 0.00 0.00 0.00 29
20260507170515 12 113 6.4 12.9 0.00 0.00 0.00 29
20260507165535 12 68 4.8 12.9 0.00 0.00 0.00 30
20260507164536 12 68 4.8 8.0 0.00 0.00 0.00 33
20260507163517 12 90 4.8 11.3 0.00 0.00 0.00 36
20260507162538 12 90 3.2 6.4 0.00 0.00 0.00 39
20260507161517 11 90 4.8 11.3 0.00 0.00 0.00 38
20260507160538 11 158 3.2 8.0 0.00 0.00 0.00 36
20260507155517 11 45 4.8 14.5 0.00 0.00 0.00 39
20260507154517 11 90 4.8 12.9 0.00 0.00 0.00 36
20260507153517 11 158 4.8 8.0 0.00 0.00 0.00 40
20260507152557 10 338 3.2 8.0 0.00 0.00 0.00 39
20260507151517 10 113 4.8 11.3 0.00 0.00 0.00 41
20260507150538 10 113 3.2 8.0 0.00 0.00 0.00 41
20260507145517 10 90 3.2 6.4 0.00 0.00 0.00 42
20260507144539 9 203 1.6 4.8 0.00 0.00 0.00 44
20260507143517 9 0 1.6 4.8 0.00 0.00 0.00 46
20260507142517 8 338 3.2 4.8 0.00 0.00 0.00 49
20260507141518 8 338 1.6 6.4 0.00 0.00 0.00 49 886.5
20260507140517 7 68 1.6 8.0 0.00 0.00 0.00 57 886.5
20260507135537 6 68 1.6 6.4 0.00 0.00 0.00 64 886.5
20260507134557 5 45 1.6 4.8 0.00 0.00 0.00 75 886.4
20260507133516 4 113 1.6 6.4 0.00 0.00 0.00 85 886.4
20260507132517 3 0.0 3.2 0.00 0.00 0.00 89 886.3
20260507131516 2 0.0 1.6 0.00 0.00 0.00 89 886.3
20260507130516 1 0.0 1.6 0.00 0.00 0.00 89 886.2
20260507125516 1 0.0 0.0 0.00 0.00 0.00 89 886.2
20260507124516 1 0.0 0.0 0.00 0.00 0.00 88 886.2
20260507123517 0 0.0 0.0 0.00 0.00 0.00 88 886.2
20260507122537 0 0.0 0.0 0.00 0.00 0.00 87 886.2
20260507121516 0 0.0 0.0 0.00 0.00 0.00 86 886.2
20260507120517 0 0.0 0.0 0.00 0.00 0.00 85 886.2
20260507115516 0 0.0 0.0 0.00 0.00 0.00 84 886.1
20260507114516 -1 0.0 0.0 0.00 0.00 0.00 83 886.1
20260507113517 -1 0.0 0.0 0.00 0.00 0.00 83 886.2
20260507112516 -1 0.0 0.0 0.00 0.00 0.00 83 886.2
20260507111516 0 0.0 0.0 0.00 0.00 0.00 82 917.5
20260507110537 0 0.0 0.0 0.00 0.00 0.00 82 917.5
20260507105516 0 0.0 0.0 0.00 0.00 0.00 82 917.5
20260507104516 0 0.0 0.0 0.00 0.00 0.00 81 917.5
20260507103516 0 0.0 0.0 0.00 0.00 0.00 81 917.5
20260507102517 0 0.0 0.0 0.00 0.00 0.00 81 917.5
20260507101516 0 0.0 0.0 0.00 0.00 0.00 80 917.5
20260507100516 0 0.0 0.0 0.00 0.00 0.00 80 917.5
20260507095515 0 0.0 0.0 0.00 0.00 0.00 80 917.5
20260507094517 0 0.0 0.0 0.00 0.00 0.00 80 917.5
20260507093515 0 0.0 0.0 0.00 0.00 0.00 78 917.5
20260507092516 0 0.0 0.0 0.00 0.00 0.00 78 917.5
20260507091515 0 0.0 0.0 0.00 0.00 0.00 77 917.5
20260507090515 0 0.0 1.6 0.00 0.00 0.00 77 917.6
20260507085515 0 0.0 0.0 0.00 0.00 0.00 76 917.6
20260507084536 0 0.0 0.0 0.00 0.00 0.00 75 917.5
20260507083515 1 0.0 0.0 0.00 0.00 0.00 75 917.5
20260507082515 1 0.0 1.6 0.00 0.00 0.00 75 917.6
20260507081517 1 0.0 0.0 0.00 0.00 0.00 74 917.5
20260507080517 1 0.0 3.2 0.00 0.00 0.00 73 917.6
20260507075517 1 0.0 0.0 0.00 0.00 0.00 71 917.6
20260507074517 2 0.0 0.0 0.00 0.00 0.00 70 917.6
20260507073518 2 0.0 0.0 0.00 0.00 0.00 69 917.6
20260507072517 2 0.0 0.0 0.00 0.00 0.00 69 917.6
20260507071517 2 0.0 0.0 0.00 0.00 0.00 68 917.6
20260507070518 2 0.0 0.0 0.00 0.00 0.00 68 917.6
20260507065517 3 0.0 0.0 0.00 0.00 0.00 67 917.7
20260507064517 3 0.0 0.0 0.00 0.00 0.00 66 1090.3
20260507063517 3 0.0 0.0 0.00 0.00 0.00 66 1090.3
20260507062517 4 0.0 0.0 0.00 0.00 0.00 65 1090.3
20260507061517 4 0.0 0.0 0.00 0.00 0.00 65 1090.3
20260507060517 5 0.0 0.0 0.00 0.00 0.00 65 1090.3
20260507055517 5 0.0 0.0 0.00 0.00 0.00 65 1090.4
20260507054557 5 0.0 0.0 0.00 0.00 0.00 65 1090.4
20260507053516 5 0.0 0.0 0.00 0.00 0.00 65 1090.4
20260507052537 5 0.0 0.0 0.00 0.00 0.00 65 1090.4
20260507051517 5 0.0 0.0 0.00 0.00 0.00 64 1090.4
20260507050517 5 0.0 0.0 0.00 0.00 0.00 63 1090.3
20260507045517 5 0.0 0.0 0.00 0.00 0.00 64 1090.3
20260507044516 5 0.0 0.0 0.00 0.00 0.00 64 1090.3
20260507043536 5 0.0 0.0 0.00 0.00 0.00 64 1090.3
20260507042557 5 0.0 0.0 0.00 0.00 0.00 63 1017.3
20260507041517 5 0.0 0.0 0.00 0.00 0.00 62 1017.3
20260507040516 5 0.0 0.0 0.00 0.00 0.00 62 1017.3
20260507035515 5 0.0 0.0 0.00 0.00 0.00 61 1017.3
20260507034517 5 0.0 0.0 0.00 0.00 0.00 61 1017.3
20260507033515 5 0.0 0.0 0.00 0.00 0.00 61 1017.3
20260507032516 5 0.0 0.0 0.00 0.00 0.00 59 1017.3
20260507031515 5 0.0 0.0 0.00 0.00 0.00 58 1017.3
20260507030515 5 0.0 0.0 0.00 0.00 0.00 57 1017.3
20260507030016 5 0.0 0.0 0.00 0.00 0.00 57 1017.3
20260507025017 5 0.0 0.0 0.00 0.00 0.00 57 1017.3
20260507024016 5 0.0 0.0 0.00 0.00 0.00 54 1017.3
20260507023016 6 0.0 0.0 0.00 0.00 0.00 53 1017.3
20260507022037 6 0.0 0.0 0.00 0.00 0.00 53 1017.3
20260507021017 6 0.0 0.0 0.00 0.00 0.00 52
20260507020016 6 0.0 0.0 0.00 0.00 0.00 51
20260507015016 6 0.0 0.0 0.00 0.00 0.00 49
20260507014016 7 0.0 0.0 0.00 0.00 0.00 49
20260507013016 7 0.0 3.2 0.00 0.00 0.00 48
20260507012016 7 68 1.6 4.8 0.00 0.00 0.00 47
20260507010017 7 90 1.6 4.8 0.00 0.00 0.00 46
20260507005016 7 90 3.2 9.7 0.00 0.00 0.00 46
20260507004016 7 68 3.2 6.4 0.00 0.00 0.00 46
20260507003016 8 45 3.2 12.9 0.00 0.00 0.00 46
20260507002017 8 68 6.4 14.5 0.00 0.00 0.00 46
20260507001017 8 68 4.8 14.5 0.00 0.00 0.00 46
20260507000016 8 90 3.2 12.9 0.00 0.00 0.00 46
20260506235016 8 90 3.2 12.9 0.00 0.00 0.00 45
20260506234016 8 90 3.2 12.9 0.00 0.00 0.00 45
20260506233015 8 113 3.2 9.7 0.00 0.00 0.00 45
20260506232036 8 68 4.8 12.9 0.00 0.00 0.00 45
20260506231016 8 68 4.8 12.9 0.00 0.00 0.00 45
20260506230036 8 135 3.2 6.4 0.00 0.00 0.00 46
20260506225015 8 68 4.8 11.3 0.00 0.00 0.00 45
20260506224015 8 135 3.2 12.9 0.00 0.00 0.00 46
20260506223056 8 90 4.8 11.3 0.00 0.00 0.00 46
20260506222015 8 113 6.4 12.9 0.00 0.00 0.00 46
20260506221017 8 113 3.2 8.0 0.00 0.00 0.00 47
20260506220018 8 68 6.4 20.9 0.00 0.00 0.00 47
20260506215017 8 90 6.4 17.7 0.00 0.00 0.00 47
20260506214017 8 68 3.2 9.7 0.00 0.00 0.00 48
20260506213017 8 90 4.8 12.9 0.00 0.00 0.00 47
20260506212018 8 90 4.8 11.3 0.00 0.00 0.00 50
20260506211017 8 23 3.2 6.4 0.00 0.00 0.00 50
20260506210017 8 90 4.8 12.9 0.00 0.00 0.00 49
20260506205018 8 68 6.4 16.1 0.00 0.00 0.00 50
20260506204017 7 68 4.8 12.9 0.00 0.00 0.00 50
20260506203017 7 90 3.2 6.4 0.00 0.00 0.00 52
20260506202018 7 90 4.8 12.9 0.00 0.00 0.00 50
20260506201017 7 90 4.8 12.9 0.00 0.00 0.00 51
20260506200017 7 90 4.8 11.3 0.00 0.00 0.00 50
20260506195018 7 90 4.8 16.1 0.00 0.00 0.00 51
20260506194017 7 90 4.8 12.9 0.00 0.00 0.00 50
20260506193017 7 0 3.2 11.3 0.00 0.00 0.00 52